Lid_Strength_Index
10 8 5 4 3 4 5 7 10 12 12 12 12 12 12 13 13 12 12 12 12 12 13 13 13 14 14 14 14 15 16 16 18 18 17 15 15 14 15 16 16 16 16
11 10 9 7 7 9 9 10 10 10 11 11 11 12 12 13 13 13 13 13 13 13 14 15 14 13 15 15 15 15 15 15 17 18 18 17 17 16 17 16 16 15 17
11 10 10 10 9 10 10 11 10 10 10 11 11 11 12 13 13 13 13 13 14 14 14 14 14 14 15 15 16 16 16 15 17 17 18 17 15 15 15 15 15 16 16
10 10 10 10 10 11 10 10 10 11 11 11 11 11 11 12 13 13 13 14 14 14 14 14 14 14 14 15 15 16 16 15 15 16 16 16 16 15 16 16 16 17 17
11 11 11 11 11 11 11 11 11 11 12 11 12 12 12 12 12 13 13 14 14 15 14 14 14 14 14 14 15 15 15 16 16 16 16 16 16 17 17 17 17 17 17
12 12 12 11 11 11 11 11 11 11 11 11 12 12 12 12 11 11 12 14 14 14 15 15 15 15 13 13 13 13 14 15 16 16 16 17 17 16 16 17 18 18 21
13 13 13 13 13 12 12 12 11 11 11 11 11 11 11 12 10 11 12 13 13 14 14 15 15 14 14 14 13 13 13 13 13 15 16 16 17 16 16 18 19 18 18
14 14 13 13 14 14 14 13 13 12 12 12 12 11 11 12 10 10 12 13 14 14 14 14 14 15 15 15 15 15 15 14 14 14 15 15 16 15 17 17 19 19 18
15 15 14 14 14 14 14 14 14 14 13 12 12 12 12 11 9 10 12 13 14 14 14 14 14 15 14 13 15 15 15 15 13 12 12 12 12 12 14 17 21 23 22
16 16 15 15 15 15 15 15 14 13 14 14 13 12 12 11 10 10 11 13 14 14 14 14 14 14 13 12 15 15 16 16 15 16 15 13 12 12 12 15 18 21 21
16 16 16 15 16 15 15 15 15 14 14 15 15 15 14 12 11 10 10 12 13 14 14 14 13 12 12 11 12 14 15 15 14 16 16 17 17 16 14 13 15 15 18
18 18 17 17 15 15 16 16 15 15 15 15 15 16 15 15 13 10 10 11 11 13 14 14 13 11 11 11 12 12 12 12 14 15 16 16 16 16 16 16 15 14 14
18 19 19 18 16 16 16 16 16 16 15 16 16 16 16 15 14 12 10 10 11 12 13 12 12 11 11 11 11 11 12 13 14 15 15 15 15 15 16 17 17 17 16
18 18 17 17 17 17 16 16 15 16 16 16 16 16 17 16 16 14 14 12 11 12 12 12 12 12 12 12 13 13 14 14 15 16 16 16 16 15 16 15 15 15 15
18 17 17 16 17 17 17 17 16 16 16 16 15 15 16 17 16 14 14 14 13 12 13 14 15 15 16 16 16 16 17 18 18 18 19 18 18 18 15 15 15 15 17
20 17 17 17 17 17 17 17 15 15 14 14 14 14 15 14 13 12 12 12 11 12 14 15 16 16 16 17 17 18 18 18 19 19 20 20 20 20 18 15 15 16 16
24 20 19 19 19 18 18 18 18 16 14 13 14 13 13 13 12 11 12 11 12 13 15 15 15 15 16 16 16 17 18 19 20 20 20 20 21 22 22 21 17 16 18
27 23 23 22 21 22 21 19 18 18 18 18 14 14 13 12 11 11 11 11 13 14 15 15 16 16 16 16 17 17 18 20 21 21 22 22 23 23 25 25 25 26 26
25 24 24 23 22 21 22 23 22 21 20 19 19 17 16 12 12 12 11 14 15 15 15 15 15 15 15 15 16 17 18 18 20 21 23 23 24 26 27 27 27 26 26
26 23 23 25 24 24 24 23 23 23 23 22 21 20 21 19 19 19 18 17 16 16 15 14 15 15 15 15 16 17 18 20 20 21 24 25 27 27 28 28 28 28 29
25 23 22 26 26 25 25 25 24 24 23 22 22 20 16 21 21 20 19 18 18 18 17 16 16 16 16 17 18 18 18 19 20 22 26 27 26 27 28 27 29 30 30
27 25 24 23 25 24 25 25 24 24 25 24 23 22 13 22 22 21 19 18 19 19 17 17 18 18 18 19 20 20 21 20 24 24 25 27 27 29 30 30 31 31 31
28 27 26 25 25 24 25 26 26 26 24 22 23 23 24 24 20 20 18 18 19 19 19 19 20 21 21 21 21 20 21 22 23 24 25 27 29 30 31 32 32 33 32
26 27 26 27 25 25 26 26 26 25 26 26 27 26 24 22 23 22 21 21 21 22 21 21 21 21 22 22 24 27 28 28 27 25 25 26 28 30 32 32 32 32 32
27 25 25 25 27 26 27 27 27 27 24 24 25 27 27 27 27 27 27 27 27 27 26 25 26 26 25 26 27 27 27 23 27 27 28 28 28 29 32 32 32 32 32
22 22 22 21 22 22 22 24 24 24 24 25 25 24 24 24 24 26 27 28 28 29 29 29 29 28 28 28 28 26 25 22 25 26 27 27 28 30 31 31 32 33 32